Flag for United Kingdom Weather past 2 weeks in Walsall, England, United Kingdom

54 °F

Scattered clouds.

Feels Like: 50 °F
Forecast: 39 / 51 °F
Wind: 10 mph from Southwest

Location: Birmingham / Airport

Current Time: Nov 27, 2015 at 10:51:36 AM

Latest Report: Nov 27, 2015 at 10:20 AM

Visibility: N/A

Pressure: 29.77 "Hg

Humidity: 88%

Dew point: 50 °F

Location of WalsallLocation

Historic Weather in Walsall — Graph


Walsall temperature yesterday

Maximum temperature yesterday: 50 °F (at 12:50 PM)
Minimum temperature yesterday: 46 °F (at 2:50 AM)
Average temperature yesterday: 48 °F

Past Weeks' High & Low Weather Summary

High59 °F (Nov 14, 9:50 PM)100% (Nov 14, 12:50 PM)30.24 "Hg (Nov 14, 12:50 PM)
Low28 °F (Nov 23, 7:20 AM)52% (Nov 21, 1:20 PM)29.39 "Hg (Nov 17, 1:50 PM)
Average47 °F83%29.87 "Hg
* Reported Nov 12 9:20 AM — Nov 27 9:50 AM, Walsall, Weather by CustomWeather, © 2015

Note: Actual official high and low records may vary slightly from our data, if they occured in-between our weather recording intervals... More about our weather records


Walsall weather history for previous 24 hours

Time TempWeatherWind HumidityBarometerVisibility
9:50 AM
Fri, Nov 27
54 °FBroken clouds.9 mph88%29.77 "HgN/A
9:20 AM54 °FBroken clouds.10 mph94%29.80 "HgN/A
8:50 AM54 °FMostly cloudy.10 mph94%29.80 "HgN/A
8:20 AM54 °FPartly sunny.9 mph94%29.83 "Hg6 mi
7:50 AM52 °FPartly sunny.9 mph100%29.83 "Hg6 mi
6:50 AM52 °FMostly cloudy.7 mph100%29.86 "Hg5 mi
6:20 AM52 °FLow clouds.7 mph100%29.86 "Hg4 mi
5:50 AM52 °FFog.6 mph100%29.89 "Hg2 mi
5:20 AM52 °FFog.7 mph94%29.89 "Hg2 mi
4:50 AM50 °FFog.8 mph100%29.92 "Hg3 mi
3:50 AM50 °FFog.6 mph100%29.95 "Hg2 mi
3:20 AM52 °FMostly cloudy.7 mph94%29.95 "Hg6 mi
2:50 AM50 °FFog.6 mph100%29.98 "Hg3 mi
2:20 AM50 °FFog.5 mph100%29.98 "Hg3 mi
1:50 AM50 °FLow clouds.5 mph94%30.01 "Hg5 mi
1:20 AM50 °FLow clouds.5 mph94%30.01 "HgN/A
12:50 AM50 °FLow clouds.6 mph94%30.04 "HgN/A
12:20 AM50 °FLow clouds.7 mph100%30.04 "HgN/A
11:50 PM
Thu, Nov 26
50 °FOvercast.7 mph100%30.04 "HgN/A
11:20 PM50 °FOvercast.7 mph94%30.04 "HgN/A
10:50 PM48 °FPassing clouds.5 mph100%30.07 "HgN/A
10:20 PM48 °FPassing clouds.5 mph94%30.07 "HgN/A
9:50 PM48 °FMostly cloudy.6 mph100%30.07 "HgN/A
9:20 PM48 °FPassing clouds.6 mph94%30.07 "HgN/A
8:50 PM48 °FPassing clouds.7 mph100%30.09 "HgN/A
8:20 PM46 °FClear.5 mph100%30.09 "Hg10 mi
7:50 PM48 °FClear.3 mph94%30.09 "Hg10 mi
7:20 PM50 °FCool.3 mph94%30.09 "Hg4 mi
6:50 PM50 °FPassing clouds.3 mph94%30.09 "HgN/A
6:20 PM50 °FPassing clouds.5 mph94%30.09 "HgN/A
5:50 PM50 °FPassing clouds.5 mph94%30.09 "HgN/A
5:20 PM50 °FPassing clouds.5 mph94%30.09 "HgN/A
4:50 PM50 °FPartly cloudy.3 mph100%30.09 "HgN/A
4:20 PM50 °FMostly cloudy.5 mph94%30.09 "HgN/A
3:50 PM50 °FBroken clouds.5 mph94%30.09 "HgN/A
3:20 PM50 °FBroken clouds.3 mph94%30.09 "HgN/A
2:50 PM50 °FBroken clouds.3 mph94%30.09 "HgN/A
2:20 PM50 °FMostly cloudy.5 mph94%30.09 "HgN/A
1:50 PM50 °FBroken clouds.6 mph94%30.09 "Hg6 mi
1:20 PM50 °FCloudy.3 mph94%30.09 "Hg4 mi
12:50 PM50 °FDrizzle. More clouds than sun.3 mph94%30.12 "Hg2 mi
12:20 PM48 °FLight rain. Cloudy.2 mph100%30.12 "Hg1 mi
11:50 AM48 °FRain. Mostly cloudy.3 mph100%30.12 "Hg1 mi
11:20 AM48 °FDrizzle. Mostly cloudy.5 mph100%30.12 "Hg1 mi
10:50 AM48 °FDrizzle. Fog.6 mph94%30.12 "Hg1 mi
10:20 AM48 °FDrizzle. Fog.5 mph94%30.09 "Hg2 mi
Weather by CustomWeather, © 2015

See weather overviewHow to use our weather pages